This is the latest recevied weather packets stored in our database for station/object KL1IO. If no packets are shown the sender has not sent any weather packets the latest 1 day(s).
| Time | Temp. | Humidity | Pressure | Rain* | Wind** | Luminosity | Snow |
|---|---|---|---|---|---|---|---|
| 1777995913 | 3.33° C | 99% | 1010.3 hPa | 0 mm | 0 m/s | 31 W/m² | - |
| 1777995609 | 3.33° C | 99% | 1010.3 hPa | 0 mm | 0 m/s | 32 W/m² | - |
| 1777995307 | 3.33° C | 99% | 1010.3 hPa | 0 mm | 0 m/s | 26 W/m² | - |
| 1777995004 | 2.78° C | 99% | 1010.2 hPa | 0 mm | 0 m/s | 34 W/m² | - |
| 1777994701 | 3.33° C | 99% | 1010 hPa | 0 mm | 0 m/s | 36 W/m² | - |
| 1777994395 | 3.33° C | 99% | 1010 hPa | 0 mm | 0 m/s | 32 W/m² | - |
| 1777994091 | 3.33° C | 99% | 1010 hPa | 0 mm | 0 m/s | 26 W/m² | - |
| 1777993788 | 2.78° C | 99% | 1009.8 hPa | 0 mm | 0 m/s | 23 W/m² | - |
| 1777993485 | 2.78° C | 99% | 1009.9 hPa | 0 mm | 0 m/s | 25 W/m² | - |
| 1777993185 | 2.78° C | 99% | 1009.9 hPa | 0 mm | 0 m/s | 21 W/m² | - |
| 1777992883 | 2.78° C | 99% | 1009.7 hPa | 0 mm | 0 m/s | 19 W/m² | - |
| 1777992581 | 2.78° C | 99% | 1009.6 hPa | 0 mm | 0 m/s | 22 W/m² | - |
| 1777992278 | 2.78° C | 99% | 1009.7 hPa | 0 mm | 0 m/s | 21 W/m² | - |
| 1777991976 | 2.78° C | 99% | 1009.7 hPa | 0 mm | 0 m/s | 19 W/m² | - |
| 1777991673 | 2.78° C | 99% | 1009.7 hPa | 0 mm | 0 m/s | 16 W/m² | - |
| 1777991370 | 2.78° C | 99% | 1009.8 hPa | 0 mm | 0 m/s | 12 W/m² | - |
| 1777991067 | 2.78° C | 99% | 1010 hPa | 0 mm | 0 m/s | 11 W/m² | - |
| 1777990764 | 2.78° C | 99% | 1009.8 hPa | 0 mm | 0 m/s | 11 W/m² | - |
| 1777990456 | 2.78° C | 99% | 1009.6 hPa | 0 mm | 0 m/s | 13 W/m² | - |
| 1777990153 | 2.78° C | 99% | 1009.6 hPa | 0 mm | 0 m/s | 10 W/m² | - |
| 1777989849 | 2.78° C | 99% | 1009.6 hPa | 0 mm | 0 m/s | 11 W/m² | - |
| 1777989546 | 2.78° C | 99% | 1009.5 hPa | 0 mm | 0 m/s | 7 W/m² | - |
| 1777989243 | 2.78° C | 99% | 1009.5 hPa | 0 mm | 0 m/s | 4 W/m² | - |
| 1777988939 | 3.33° C | 99% | 1009.5 hPa | 0 mm | 0 m/s | 2 W/m² | - |
| 1777988636 | 3.33° C | 99% | 1009.7 hPa | 0 mm | 0.45 m/s, 200° | 2 W/m² | - |
* Rain latest hour (hover to see other rain measurements)
** Current wind speed in m/s (hover to see current wind gust speed)